Flint, MI

10:29 PM EDT on June 18, 2018 (GMT -0400)
Bishop International

Weather History for KFNT - June, 2018

Change the Weather History Date:

Wednesday, June 13, 2018

  Actual Average Record
Temperature  
Mean Temperature 69 °F 66 °F  
Max Temperature 81 °F 77 °F 93 °F (1988)
Min Temperature 56 °F 55 °F 42 °F (1963)
Degree Days  
Heating Degree Days 0 2  
Month to date heating degree days 28 44  
Since 1 June heating degree days 28 44  
Since 1 July heating degree days 6905 6931  
Cooling Degree Days 4 3  
Month to date cooling degree days 22 32  
Year to date cooling degree days 108 64  
Since 1 June cooling degree days 22 32  
Growing Degree Days 22 (Base 50)    
Moisture  
Dew Point 60 °F    
Average Humidity 68    
Maximum Humidity 100    
Minimum Humidity 36    
Precipitation  
Precipitation 0.00 in 0.10 in 2.52 in (1958)
Month to date precipitation 1.95 1.34  
Year to date precipitation 15.01 12.33  
Snow  
Snow 0.00 in 0.00 in 0.00 in ()
Month to date snowfall 0.0 0.0  
Since 1 June snowfall 0.0 0.0  
Since 1 July snowfall 85.3 47.4  
Snow Depth 0.00 in    
Sea Level Pressure  
Sea Level Pressure 29.84 in    
Wind  
Wind Speed 10 mph (West)    
Max Wind Speed 28 mph    
Max Gust Speed 34 mph    
Visibility 7 miles    
Events      
T = Trace of Precipitation, MM = Missing Value Source: NWS Daily Summary

Daily Weather History Graph

Daily Weather History Graph

Search for Another Location

Airport or City:

Astronomy

Jun. 13, 2018 Rise Set
Actual Time 5:55 AM EDT 9:14 PM EDT
Civil Twilight 5:20 AM EDT 9:50 PM EDT
Nautical Twilight 4:34 AM EDT 10:35 PM EDT
Astronomical Twilight 3:38 AM EDT 11:32 PM EDT
Moon 5:58 AM EDT (6/13) 9:07 PM EDT (6/13)
Length of Visible Light 16h 30m
Length of Day
15h 19m
Waning Crescent, 0% of the Moon is Illuminated
Jun 13
Waning Crescent
Jun 13
New
Jun 20
First Quarter
Jun 28
Full
Jul 6
Last Quarter

Hourly Weather History & Observations

Time (EDT) Temp. Heat Index Dew Point Humidity Pressure Visibility Wind Dir Wind Speed Gust Speed Precip Events Conditions
12:53 AM 68.0 °F - 64.9 °F 90% 29.85 in 8.0 mi SSW 3.5 mph - N/A   Overcast
1:53 AM 66.0 °F - 64.9 °F 96% 29.83 in 5.0 mi WSW 3.5 mph - N/A   Clear
2:53 AM 66.0 °F - 64.9 °F 96% 29.82 in 4.0 mi WSW 5.8 mph - N/A   Clear
3:53 AM 64.9 °F - 64.0 °F 97% 29.81 in 3.0 mi WSW 4.6 mph - N/A   Partly Cloudy
4:53 AM 64.9 °F - 64.0 °F 97% 29.81 in 4.0 mi SW 5.8 mph - N/A   Clear
5:25 AM 66.0 °F - 64.9 °F 96% 29.82 in 4.0 mi WSW 6.9 mph - N/A   Mostly Cloudy
5:53 AM 66.0 °F - 64.9 °F 96% 29.80 in 2.5 mi SW 4.6 mph - N/A   Overcast
6:13 AM 66.0 °F - 64.9 °F 96% 29.81 in 2.5 mi WSW 3.5 mph - N/A   Overcast
6:53 AM 66.9 °F - 66.0 °F 97% 29.80 in 2.5 mi SW 4.6 mph - N/A   Overcast
7:20 AM 66.9 °F - 66.0 °F 97% 29.81 in 4.0 mi SW 3.5 mph - N/A   Overcast
7:53 AM 69.1 °F - 66.9 °F 93% 29.80 in 4.0 mi WSW 4.6 mph - N/A   Mostly Cloudy
8:03 AM 70.0 °F - 66.9 °F 90% 29.82 in 5.0 mi WSW 5.8 mph - N/A   Scattered Clouds
8:12 AM 70.0 °F - 66.9 °F 90% 29.82 in 5.0 mi WSW 9.2 mph - N/A   Scattered Clouds
8:23 AM 69.1 °F - 66.9 °F 93% 29.82 in 6.0 mi WSW 11.5 mph - N/A   Mostly Cloudy
8:53 AM 70.0 °F - 66.9 °F 90% 29.81 in 6.0 mi SW 6.9 mph - N/A   Overcast
9:53 AM 73.0 °F - 66.9 °F 81% 29.81 in 7.0 mi WSW 11.5 mph - N/A   Overcast
10:00 AM 73.0 °F - 66.9 °F 81% 29.82 in 8.0 mi WSW 11.5 mph - N/A   Overcast
10:11 AM 73.0 °F - 66.9 °F 81% 29.81 in 8.0 mi WSW 8.1 mph - N/A   Overcast
10:53 AM 77.0 °F - 68.0 °F 74% 29.80 in 10.0 mi WSW 11.5 mph - N/A   Mostly Cloudy
11:53 AM 75.9 °F - 64.9 °F 69% 29.80 in 10.0 mi West 16.1 mph - N/A   Scattered Clouds
12:53 PM 80.1 °F 81.7 °F 64.0 °F 58% 29.80 in 10.0 mi West 21.9 mph 31.1 mph N/A   Partly Cloudy
1:53 PM 80.1 °F 80.9 °F 60.1 °F 50% 29.81 in 10.0 mi West 21.9 mph 31.1 mph N/A   Partly Cloudy
3:06 PM 79.0 °F - 55.9 °F 45% 29.84 in 10.0 mi WNW 23.0 mph 29.9 mph N/A   Partly Cloudy
3:53 PM 79.0 °F - 54.0 °F 42% 29.85 in 10.0 mi NW 23.0 mph 31.1 mph N/A   Partly Cloudy
4:53 PM 79.0 °F - 50.0 °F 36% 29.85 in 10.0 mi WNW 19.6 mph - N/A   Clear
5:53 PM 79.0 °F - 50.0 °F 36% 29.87 in 10.0 mi NW 18.4 mph 29.9 mph N/A   Scattered Clouds
6:53 PM 77.0 °F - 48.0 °F 36% 29.90 in 10.0 mi NNW 16.1 mph 21.9 mph N/A   Clear
7:53 PM 75.0 °F - 46.0 °F 36% 29.92 in 10.0 mi NNW 12.7 mph - N/A   Clear
8:53 PM 71.1 °F - 44.1 °F 38% 29.93 in 10.0 mi NW 9.2 mph - N/A   Clear
9:53 PM 64.9 °F - 46.0 °F 50% 29.95 in 10.0 mi NW 5.8 mph - N/A   Clear
10:53 PM 63.0 °F - 44.1 °F 50% 29.99 in 10.0 mi West 4.6 mph - N/A   Clear
11:53 PM 57.0 °F - 50.0 °F 77% 29.98 in 10.0 mi WSW 4.6 mph - N/A   Clear